CW4167 Weather Reports


time (UTC)temp
C
wind
direction
speed
KPH
gust
KPH
rain 1hr
cm
rain 24hr
cm
rain mn
cm
humidity
%
barometer
mb
20260505111206 12 336 14.5 22.5 0.00 0.00 0.00 65 1009.5
20260505102205 12 355 16.1 24.1 0.00 0.00 0.00 65 1009.7
20260505094205 12 3 12.9 24.1 0.00 0.00 0.00 65 1009.7
20260505093206 12 309 19.3 25.7 0.00 0.00 0.00 64 1009.7
20260505092704 12 340 16.1 27.4 0.00 0.00 0.00 65 1009.8
20260505090704 12 313 16.1 25.7 0.00 0.00 0.00 65 1009.7
20260505084706 11 338 14.5 22.5 0.00 0.00 0.00 68 1009.8
20260505084204 12 319 17.7 27.4 0.00 0.00 0.00 66 1009.8
20260505083205 12 333 11.3 22.5 0.00 0.00 0.00 71 1009.8
20260505082705 11 330 19.3 24.1 0.00 0.00 0.00 72 1009.8
20260505080206 11 311 16.1 25.7 0.00 0.00 0.00 70 1009.7
20260505075204 11 318 11.3 22.5 0.00 0.00 0.00 73 1009.6
20260505074205 10 344 17.7 27.4 0.00 0.00 0.00 75 1009.6
20260505073705 10 325 14.5 24.1 0.00 0.00 0.00 75 1009.6
20260505070705 10 313 16.1 24.1 0.00 0.00 0.00 73 1009.5
20260505070205 10 310 14.5 24.1 0.00 0.00 0.00 74 1009.5
20260505064705 10 338 17.7 22.5 0.00 0.00 0.00 74 1009.5
20260505064205 10 324 11.3 16.1 0.00 0.00 0.00 76 1009.6
20260505063706 10 315 14.5 22.5 0.00 0.00 0.00 75 1009.6
20260505063207 9 328 16.1 27.4 0.00 0.00 0.00 76 1009.5
20260505062704 9 326 17.7 25.7 0.00 0.00 0.00 77 1009.5
20260505062205 9 309 19.3 24.1 0.00 0.00 0.00 77 1009.5
20260505061705 9 322 19.3 27.4 0.00 0.00 0.00 77 1009.5
20260505061205 9 307 16.1 25.7 0.00 0.00 0.00 79 1009.5
20260505060705 9 322 12.9 25.7 0.00 0.00 0.00 80 1009.5
20260505060204 9 344 14.5 22.5 0.00 0.00 0.00 82 1009.4
20260505055706 8 317 11.3 16.1 0.00 0.00 0.00 84 1009.4
20260505055204 8 310 9.7 12.9 0.00 0.00 0.00 84 1009.4
20260505054705 8 305 8.0 11.3 0.00 0.00 0.00 83 1009.4
20260505053704 8 310 9.7 16.1 0.00 0.00 0.00 85 1009.4
20260505052206 7 291 11.3 14.5 0.00 0.00 0.00 87 1009.4
20260505041205 5 273 1.6 4.8 0.00 0.03 0.00 88 1009.3
20260505040206 5 267 1.6 8.0 0.00 0.03 0.00 88 1009.4
20260505035704 5 265 4.8 9.7 0.00 0.03 0.00 88 1009.5
20260505034205 5 256 0.0 8.0 0.00 0.03 0.00 87 1009.5
20260505033704 5 245 3.2 4.8 0.00 0.03 0.00 87 1009.5
20260505033204 5 238 1.6 3.2 0.00 0.03 0.00 87 1009.5
20260505032205 5 239 3.2 4.8 0.00 0.03 0.00 87 1009.5
20260505030705 5 239 3.2 8.0 0.00 0.03 0.00 87 1009.3
20260505025704 5 274 4.8 4.8 0.00 0.03 0.00 87 1009.4
20260505025205 5 272 3.2 4.8 0.00 0.03 0.00 87 1009.4
20260505024705 5 275 4.8 8.0 0.00 0.03 0.00 87 1009.4
20260505024204 5 292 4.8 8.0 0.00 0.03 0.00 87 1009.4
20260505023705 5 293 4.8 8.0 0.00 0.03 0.00 87 1009.5
20260505023205 5 263 4.8 8.0 0.00 0.03 0.00 87 1009.5
20260505022704 5 314 3.2 4.8 0.00 0.03 0.00 87 1009.4
20260505021705 5 314 4.8 8.0 0.00 0.03 0.00 87 1009.5
20260505020205 5 318 8.0 11.3 0.00 0.03 0.00 86 1009.6
20260505015204 5 296 8.0 9.7 0.00 0.03 0.00 86 1009.6
20260505014705 6 305 8.0 9.7 0.00 0.03 0.00 86 1009.6
20260505014204 6 303 8.0 9.7 0.00 0.03 0.00 86 1009.7
20260505013705 6 299 9.7 11.3 0.00 0.03 0.00 86 1009.7
20260505012706 6 289 8.0 9.7 0.00 0.03 0.00 86 1009.6
20260505011704 6 292 8.0 9.7 0.00 0.03 0.00 86 1009.6
20260505011205 6 289 4.8 8.0 0.00 0.03 0.00 86 1009.8
20260505010205 6 289 6.4 9.7 0.00 0.03 0.00 86 1009.8
20260505005204 6 289 9.7 12.9 0.00 0.03 0.00 86 1009.8
20260505004704 6 292 8.0 11.3 0.00 0.03 0.00 86 1009.7
20260505004204 6 303 9.7 11.3 0.00 0.03 0.00 86 1009.7
20260505003705 6 294 9.7 11.3 0.00 0.03 0.00 86 1009.7
20260505003204 6 289 8.0 11.3 0.00 0.03 0.00 86 1009.7
20260505001706 6 306 9.7 12.9 0.00 0.03 0.00 86 1009.9
20260505001206 6 293 8.0 11.3 0.00 0.03 0.00 86 1009.8
20260505000704 6 290 8.0 9.7 0.00 0.03 0.00 86 1009.8
20260505000204 6 291 4.8 9.7 0.00 0.03 0.00 86 1009.9
20260504235707 6 279 4.8 8.0 0.00 0.03 0.00 86 1009.9
20260504234705 6 288 4.8 8.0 0.00 0.03 0.00 85 1009.9
20260504232704 6 294 8.0 9.7 0.00 0.05 0.00 85 1009.8
20260504232206 6 290 6.4 9.7 0.00 0.05 0.00 85 1009.9
20260504231206 7 301 3.2 4.8 0.00 0.05 0.00 85 1010.0
20260504230705 7 301 8.0 9.7 0.00 0.05 0.00 85 1010.0
20260504224206 7 306 0.0 0.0 0.00 0.13 0.00 83 1010.0
20260504223705 7 306 0.0 0.0 0.00 0.13 0.00 83 1010.0
20260504222706 7 307 3.2 4.8 0.00 0.15 0.00 82 1009.9
20260504221704 7 306 4.8 8.0 0.00 0.15 0.00 81 1010.0
20260504220704 8 306 4.8 9.7 0.00 0.18 0.00 81 1009.9
20260504220204 8 302 6.4 9.7 0.00 0.23 0.00 81 1009.9
20260504213706 8 287 9.7 12.9 0.00 0.30 0.25 79 1009.9
20260504212206 8 300 8.0 12.9 0.00 0.33 0.25 78 1009.9
20260504211704 8 302 8.0 11.3 0.00 0.36 0.25 78 1009.9
20260504211204 8 291 6.4 11.3 0.00 0.38 0.25 77 1009.8
20260504210704 8 289 6.4 11.3 0.00 0.41 0.25 77 1009.8
20260504210208 8 283 6.4 11.3 0.00 0.41 0.25 76 1009.8
20260504205207 8 285 4.8 9.7 0.00 0.48 0.25 75 1009.8
20260504204708 8 287 4.8 11.3 0.00 0.51 0.25 75 1009.8
20260504203707 8 300 4.8 8.0 0.00 0.53 0.25 74 1009.8
20260504203208 8 279 3.2 8.0 0.00 0.56 0.25 74 1009.8
20260504201708 9 276 3.2 4.8 0.00 0.56 0.25 72 1009.8
20260504200708 9 268 4.8 8.0 0.00 0.56 0.25 71 1009.7
20260504200207 9 287 4.8 8.0 0.00 0.58 0.25 71 1009.7
20260504195207 10 267 3.2 8.0 0.00 0.61 0.25 70 1009.7
20260504194707 10 268 4.8 4.8 0.00 0.61 0.25 69 1009.6
20260504194206 10 268 4.8 8.0 0.00 0.66 0.25 69 1009.6
20260504193206 10 248 3.2 8.0 0.00 0.71 0.25 67 1009.6
20260504190206 11 262 1.6 3.2 0.00 0.74 0.25 63 1009.4
20260504185707 12 260 3.2 4.8 0.00 0.74 0.25 63 1009.4
20260504185207 12 258 1.6 8.0 0.00 0.74 0.25 63 1009.4
20260504184706 12 254 4.8 8.0 0.00 0.74 0.25 62 1009.4
20260504183207 13 262 3.2 4.8 0.00 0.74 0.25 60 1009.3
20260504182707 13 272 3.2 8.0 0.00 0.74 0.25 60 1009.3
20260504181206 14 274 6.4 11.3 0.00 0.74 0.25 57 1009.2
20260504180207 15 293 9.7 14.5 0.00 0.74 0.25 55 1009.2
20260504175206 15 283 11.3 12.9 0.00 0.74 0.25 54 1009.2
20260504174706 15 279 9.7 16.1 0.00 0.74 0.25 55 1009.2
20260504174206 15 272 9.7 14.5 0.00 0.74 0.25 54 1009.2
20260504173706 15 295 11.3 20.9 0.00 0.74 0.25 53 1009.2
20260504172707 15 281 9.7 22.5 0.00 0.74 0.25 54 1009.2
20260504170706 15 301 11.3 22.5 0.00 0.74 0.25 53 1009.2
20260504170206 15 285 11.3 12.9 0.00 0.74 0.25 54 1009.2
20260504150707 16 293 19.3 25.7 0.00 0.74 0.25 49 1009.2
20260504140707 16 239 19.3 35.4 0.00 0.74 0.25 50 1009.4
20260504130706 15 292 22.5 33.8 0.00 0.74 0.25 53 1009.2
20260504120206 15 261 17.7 25.7 0.00 0.74 0.25 54 1009.0